Location: 476 Grange Obs.
(45.1420°N, 7.1420°E)
Time: 18:06:58
(UTC+02:00)

ISS - Visible Passes

Search period start: 29 June 2017 00:00
Search period end: 09 July 2017 00:00
Orbit: 401 x 408 km, 51.6° (Epoch: 30 June)

Date Brightness Start Highest point End Pass type
(mag) Time Alt. Az. Time Alt. Az. Time Alt. Az.
07 Jul -1.8 04:33:26 12° S 04:35:31 19° SE 04:37:56 10° E visible
08 Jul -1.3 03:43:09 11° SE 03:43:30 11° SE 03:44:18 10° ESE visible
08 Jul -3.8 05:16:11 10° SW 05:19:26 74° SSE 05:22:42 10° ENE visible
